Year,Month,Day,Hour,Minute,Value (Times are PST for windspeed in km/hr)
2005,12,26,00,00,6.20
2005,12,26,00,01,5.30
2005,12,26,00,02,9.90
2005,12,26,00,03,5.70
2005,12,26,00,04,8.70
2005,12,26,00,05,9.00
2005,12,26,00,06,8.10
2005,12,26,00,07,9.20
2005,12,26,00,08,18.70
2005,12,26,00,09,10.70
2005,12,26,00,10,5.50
2005,12,26,00,11,7.50
2005,12,26,00,12,9.70
2005,12,26,00,13,8.50
2005,12,26,00,14,8.50
2005,12,26,00,15,9.50
2005,12,26,00,16,5.50
2005,12,26,00,17,5.10
2005,12,26,00,18,3.50
2005,12,26,00,19,3.20
2005,12,26,00,20,3.20
2005,12,26,00,21,9.00
2005,12,26,00,22,10.50
2005,12,26,00,23,11.30
2005,12,26,00,24,8.50
2005,12,26,00,25,8.00
2005,12,26,00,26,7.60
2005,12,26,00,27,12.40
2005,12,26,00,28,9.40
2005,12,26,00,29,13.50
2005,12,26,00,30,12.20
2005,12,26,00,31,9.20
2005,12,26,00,32,19.50
2005,12,26,00,33,14.60
2005,12,26,00,34,21.30
2005,12,26,00,35,15.10
2005,12,26,00,36,10.00
2005,12,26,00,37,12.00
2005,12,26,00,38,9.70
2005,12,26,00,39,18.80
2005,12,26,00,40,18.00
2005,12,26,00,41,17.90
2005,12,26,00,42,18.60
2005,12,26,00,43,16.10
2005,12,26,00,44,16.60
2005,12,26,00,45,15.00
2005,12,26,00,46,8.70
2005,12,26,00,47,10.10
2005,12,26,00,48,10.50
2005,12,26,00,49,5.80
2005,12,26,00,50,11.30
2005,12,26,00,51,8.00
2005,12,26,00,52,6.00
2005,12,26,00,53,13.40
2005,12,26,00,54,10.60
2005,12,26,00,55,5.50
2005,12,26,00,56,2.70
2005,12,26,00,57,6.10
2005,12,26,00,58,3.20
2005,12,26,00,59,7.80
2005,12,26,01,00,11.00
2005,12,26,01,01,10.70
2005,12,26,01,02,8.90
2005,12,26,01,03,3.10
2005,12,26,01,04,3.80
2005,12,26,01,05,5.90
2005,12,26,01,06,5.40
2005,12,26,01,07,1.60
2005,12,26,01,08,0.60
2005,12,26,01,09,5.60
2005,12,26,01,10,7.60
2005,12,26,01,11,5.70
2005,12,26,01,12,4.30
2005,12,26,01,13,0.60
2005,12,26,01,14,0.90
2005,12,26,01,15,2.80
2005,12,26,01,16,0.60
2005,12,26,01,17,1.20
2005,12,26,01,18,1.50
2005,12,26,01,19,4.10
2005,12,26,01,20,1.70
2005,12,26,01,21,0.00
2005,12,26,01,22,0.40
2005,12,26,01,23,0.00
2005,12,26,01,24,2.80
2005,12,26,01,25,1.40
2005,12,26,01,26,0.40
2005,12,26,01,27,1.20
2005,12,26,01,28,0.20
2005,12,26,01,29,2.00
2005,12,26,01,30,1.90
2005,12,26,01,31,3.40
2005,12,26,01,32,1.10
2005,12,26,01,33,2.20
2005,12,26,01,34,2.90
2005,12,26,01,35,2.00
2005,12,26,01,36,0.10
2005,12,26,01,37,0.00
2005,12,26,01,38,1.80
2005,12,26,01,39,3.60
2005,12,26,01,40,1.40
2005,12,26,01,41,0.60
2005,12,26,01,42,1.40
2005,12,26,01,43,3.20
2005,12,26,01,44,0.40
2005,12,26,01,45,3.50
2005,12,26,01,46,1.10
2005,12,26,01,47,3.10
2005,12,26,01,48,1.90
2005,12,26,01,49,0.50
2005,12,26,01,50,0.50
2005,12,26,01,51,0.00
2005,12,26,01,52,1.30
2005,12,26,01,53,3.70
2005,12,26,01,54,6.30
2005,12,26,01,55,7.10
2005,12,26,01,56,3.00
2005,12,26,01,57,0.30
2005,12,26,01,58,0.00
2005,12,26,01,59,0.10
2005,12,26,02,00,0.20
2005,12,26,02,01,1.50
2005,12,26,02,02,0.90
2005,12,26,02,03,0.10
2005,12,26,02,04,0.20
2005,12,26,02,05,0.00
2005,12,26,02,06,0.00
2005,12,26,02,07,0.10
2005,12,26,02,08,3.10
2005,12,26,02,09,0.00
2005,12,26,02,10,0.00
2005,12,26,02,11,0.00
2005,12,26,02,12,0.00
2005,12,26,02,13,3.10
2005,12,26,02,14,0.30
2005,12,26,02,15,0.00
2005,12,26,02,16,0.00
2005,12,26,02,17,0.00
2005,12,26,02,18,0.00
2005,12,26,02,19,0.40
2005,12,26,02,20,0.20
2005,12,26,02,21,0.40
2005,12,26,02,22,1.60
2005,12,26,02,23,3.60
2005,12,26,02,24,0.20
2005,12,26,02,25,1.20
2005,12,26,02,26,1.60
2005,12,26,02,27,4.10
2005,12,26,02,28,3.10
2005,12,26,02,29,0.00
2005,12,26,02,30,0.00
2005,12,26,02,31,0.30
2005,12,26,02,32,0.70
2005,12,26,02,33,0.10
2005,12,26,02,34,0.00
2005,12,26,02,35,0.00
2005,12,26,02,36,4.10
2005,12,26,02,37,5.80
2005,12,26,02,38,4.30
2005,12,26,02,39,2.80
2005,12,26,02,40,1.30
2005,12,26,02,41,2.40
2005,12,26,02,42,1.80
2005,12,26,02,43,2.10
2005,12,26,02,44,1.90
2005,12,26,02,45,3.10
2005,12,26,02,46,3.00
2005,12,26,02,47,4.00
2005,12,26,02,48,1.00
2005,12,26,02,49,0.00
2005,12,26,02,50,0.90
2005,12,26,02,51,2.40
2005,12,26,02,52,0.50
2005,12,26,02,53,1.00
2005,12,26,02,54,1.60
2005,12,26,02,55,0.40
2005,12,26,02,56,2.40
2005,12,26,02,57,2.80
2005,12,26,02,58,2.00
2005,12,26,02,59,1.60
2005,12,26,03,00,2.20
2005,12,26,03,01,3.00
2005,12,26,03,02,2.50
2005,12,26,03,03,0.00
2005,12,26,03,04,0.10
2005,12,26,03,05,0.60
2005,12,26,03,06,4.70
2005,12,26,03,07,4.50
2005,12,26,03,08,6.20
2005,12,26,03,09,4.70
2005,12,26,03,10,2.00
2005,12,26,03,11,1.80
2005,12,26,03,12,3.70
2005,12,26,03,13,1.50
2005,12,26,03,14,1.60
2005,12,26,03,15,0.20
2005,12,26,03,16,0.30
2005,12,26,03,17,0.20
2005,12,26,03,18,0.10
2005,12,26,03,19,0.00
2005,12,26,03,20,0.90
2005,12,26,03,21,0.00
2005,12,26,03,22,0.20
2005,12,26,03,23,0.00
2005,12,26,03,24,0.00
2005,12,26,03,25,0.20
2005,12,26,03,26,0.80
2005,12,26,03,27,0.00
2005,12,26,03,28,0.00
2005,12,26,03,29,0.20
2005,12,26,03,30,2.10
2005,12,26,03,31,3.50
2005,12,26,03,32,3.90
2005,12,26,03,33,2.50
2005,12,26,03,34,0.40
2005,12,26,03,35,0.00
2005,12,26,03,36,0.90
2005,12,26,03,37,3.10
2005,12,26,03,38,4.50
2005,12,26,03,39,4.10
2005,12,26,03,40,4.90
2005,12,26,03,41,3.80
2005,12,26,03,42,0.00
2005,12,26,03,43,0.00
2005,12,26,03,44,0.10
2005,12,26,03,45,1.30
2005,12,26,03,46,2.10
2005,12,26,03,47,2.00
2005,12,26,03,48,3.50
2005,12,26,03,49,0.30
2005,12,26,03,50,0.70
2005,12,26,03,51,3.70
2005,12,26,03,52,0.00
2005,12,26,03,53,0.00
2005,12,26,03,54,0.00
2005,12,26,03,55,0.10
2005,12,26,03,56,1.00
2005,12,26,03,57,0.00
2005,12,26,03,58,0.00
2005,12,26,03,59,0.10
2005,12,26,04,00,0.50
2005,12,26,04,01,2.60
2005,12,26,04,02,4.80
2005,12,26,04,03,4.80
2005,12,26,04,04,4.80
2005,12,26,04,05,2.00
2005,12,26,04,06,0.10
2005,12,26,04,07,1.80
2005,12,26,04,08,1.40
2005,12,26,04,09,1.30
2005,12,26,04,10,1.60
2005,12,26,04,11,1.70
2005,12,26,04,12,8.50
2005,12,26,04,13,6.60
2005,12,26,04,14,7.30
2005,12,26,04,15,1.40
2005,12,26,04,16,3.90
2005,12,26,04,17,4.30
2005,12,26,04,18,4.10
2005,12,26,04,19,2.50
2005,12,26,04,20,0.30
2005,12,26,04,21,0.30
2005,12,26,04,22,3.00
2005,12,26,04,23,0.30
2005,12,26,04,24,0.10
2005,12,26,04,25,0.00
2005,12,26,04,26,0.60
2005,12,26,04,27,0.70
2005,12,26,04,28,8.40
2005,12,26,04,29,3.90
2005,12,26,04,30,6.00
2005,12,26,04,31,3.10
2005,12,26,04,32,4.20
2005,12,26,04,33,8.30
2005,12,26,04,34,13.00
2005,12,26,04,35,7.20
2005,12,26,04,36,6.80
2005,12,26,04,37,5.20
2005,12,26,04,38,10.60
2005,12,26,04,39,6.50
2005,12,26,04,40,5.40
2005,12,26,04,41,4.30
2005,12,26,04,42,2.50
2005,12,26,04,43,3.00
2005,12,26,04,44,9.60
2005,12,26,04,45,10.10
2005,12,26,04,46,8.30
2005,12,26,04,47,7.40
2005,12,26,04,48,11.50
2005,12,26,04,49,5.10
2005,12,26,04,50,3.90
2005,12,26,04,51,4.70
2005,12,26,04,52,15.10
2005,12,26,04,53,12.20
2005,12,26,04,54,6.00
2005,12,26,04,55,7.70
2005,12,26,04,56,10.00
2005,12,26,04,57,5.30
2005,12,26,04,58,3.50
2005,12,26,04,59,2.30
2005,12,26,05,00,3.50
2005,12,26,05,01,1.90
2005,12,26,05,02,0.10
2005,12,26,05,03,0.10
2005,12,26,05,04,2.20
2005,12,26,05,05,6.00
2005,12,26,05,06,11.00
2005,12,26,05,07,6.60
2005,12,26,05,08,5.10
2005,12,26,05,09,1.30
2005,12,26,05,10,6.40
2005,12,26,05,11,11.50
2005,12,26,05,12,12.70
2005,12,26,05,13,13.80
2005,12,26,05,14,10.20
2005,12,26,05,15,7.50
2005,12,26,05,16,6.80
2005,12,26,05,17,2.80
2005,12,26,05,18,2.60
2005,12,26,05,19,6.90
2005,12,26,05,20,7.30
2005,12,26,05,21,6.90
2005,12,26,05,22,3.30
2005,12,26,05,23,8.80
2005,12,26,05,24,8.50
2005,12,26,05,25,2.90
2005,12,26,05,26,4.70
2005,12,26,05,27,1.00
2005,12,26,05,28,3.30
2005,12,26,05,29,5.50
2005,12,26,05,30,1.00
2005,12,26,05,31,5.00
2005,12,26,05,32,2.10
2005,12,26,05,33,1.30
2005,12,26,05,34,0.00
2005,12,26,05,35,0.00
2005,12,26,05,36,0.00
2005,12,26,05,37,1.00
2005,12,26,05,38,1.20
2005,12,26,05,39,2.50
2005,12,26,05,40,0.70
2005,12,26,05,41,1.10
2005,12,26,05,42,0.00
2005,12,26,05,43,0.20
2005,12,26,05,44,0.80
2005,12,26,05,45,0.00
2005,12,26,05,46,0.00
2005,12,26,05,47,0.00
2005,12,26,05,48,0.00
2005,12,26,05,49,0.10
2005,12,26,05,50,1.00
2005,12,26,05,51,3.20
2005,12,26,05,52,2.20
2005,12,26,05,53,0.00
2005,12,26,05,54,0.00
2005,12,26,05,55,0.00
2005,12,26,05,56,0.10
2005,12,26,05,57,0.40
2005,12,26,05,58,1.20
2005,12,26,05,59,1.50
2005,12,26,06,00,2.30
2005,12,26,06,01,4.10
2005,12,26,06,02,1.90
2005,12,26,06,03,1.20
2005,12,26,06,04,0.00
2005,12,26,06,05,0.00
2005,12,26,06,06,0.10
2005,12,26,06,07,0.00
2005,12,26,06,08,1.20
2005,12,26,06,09,0.10
2005,12,26,06,10,0.50
2005,12,26,06,11,1.20
2005,12,26,06,12,3.10
2005,12,26,06,13,3.60
2005,12,26,06,14,1.30
2005,12,26,06,15,0.80
2005,12,26,06,16,0.50
2005,12,26,06,17,0.30
2005,12,26,06,18,1.80
2005,12,26,06,19,1.90
2005,12,26,06,20,0.10
2005,12,26,06,21,0.70
2005,12,26,06,22,0.60
2005,12,26,06,23,0.70
2005,12,26,06,24,1.90
2005,12,26,06,25,3.00
2005,12,26,06,26,0.20
2005,12,26,06,27,0.20
2005,12,26,06,28,0.20
2005,12,26,06,29,0.60
2005,12,26,06,30,0.40
2005,12,26,06,31,1.20
2005,12,26,06,32,2.30
2005,12,26,06,33,3.70
2005,12,26,06,34,2.70
2005,12,26,06,35,3.90
2005,12,26,06,36,4.30
2005,12,26,06,37,4.70
2005,12,26,06,38,4.20
2005,12,26,06,39,2.50
2005,12,26,06,40,3.70
2005,12,26,06,41,2.50
2005,12,26,06,42,3.20
2005,12,26,06,43,3.40
2005,12,26,06,44,3.40
2005,12,26,06,45,4.60
2005,12,26,06,46,3.50
2005,12,26,06,47,0.10
2005,12,26,06,48,0.20
2005,12,26,06,49,3.30
2005,12,26,06,50,6.20
2005,12,26,06,51,4.30
2005,12,26,06,52,3.90
2005,12,26,06,53,3.60
2005,12,26,06,54,5.40
2005,12,26,06,55,1.90
2005,12,26,06,56,1.40
2005,12,26,06,57,4.40
2005,12,26,06,58,4.30
2005,12,26,06,59,3.20
2005,12,26,07,00,4.50
2005,12,26,07,01,7.00
2005,12,26,07,02,5.30
2005,12,26,07,03,5.60
2005,12,26,07,04,5.30
2005,12,26,07,05,4.40
2005,12,26,07,06,4.50
2005,12,26,07,07,5.80
2005,12,26,07,08,4.90
2005,12,26,07,09,4.50
2005,12,26,07,10,3.60
2005,12,26,07,11,3.20
2005,12,26,07,12,3.10
2005,12,26,07,13,4.80
2005,12,26,07,14,3.40
2005,12,26,07,15,3.50
2005,12,26,07,16,4.90
2005,12,26,07,17,4.30
2005,12,26,07,18,4.10
2005,12,26,07,19,3.90
2005,12,26,07,20,1.10
2005,12,26,07,21,0.30
2005,12,26,07,22,0.10
2005,12,26,07,23,0.10
2005,12,26,07,24,0.80
2005,12,26,07,25,0.00
2005,12,26,07,26,0.00
2005,12,26,07,27,0.00
2005,12,26,07,28,0.40
2005,12,26,07,29,1.50
2005,12,26,07,30,2.70
2005,12,26,07,31,1.90
2005,12,26,07,32,1.70
2005,12,26,07,33,1.20
2005,12,26,07,34,1.10
2005,12,26,07,35,1.00
2005,12,26,07,36,1.80
2005,12,26,07,37,2.50
2005,12,26,07,38,1.90
2005,12,26,07,39,1.60
2005,12,26,07,40,0.30
2005,12,26,07,41,0.10
2005,12,26,07,42,0.30
2005,12,26,07,43,0.20
2005,12,26,07,44,1.00
2005,12,26,07,45,0.10
2005,12,26,07,46,0.90
2005,12,26,07,47,2.80
2005,12,26,07,48,3.00
2005,12,26,07,49,1.40
2005,12,26,07,50,2.60
2005,12,26,07,51,0.10
2005,12,26,07,52,0.00
2005,12,26,07,53,0.00
2005,12,26,07,54,0.00
2005,12,26,07,55,0.00
2005,12,26,07,56,0.00
2005,12,26,07,57,0.00
2005,12,26,07,58,0.00
2005,12,26,07,59,0.00
2005,12,26,08,00,0.00
2005,12,26,08,01,0.00
2005,12,26,08,02,0.00
2005,12,26,08,03,0.00
2005,12,26,08,04,0.00
2005,12,26,08,05,0.00
2005,12,26,08,06,0.00
2005,12,26,08,07,0.00
2005,12,26,08,08,0.00
2005,12,26,08,09,0.00
2005,12,26,08,10,0.00
2005,12,26,08,11,0.00
2005,12,26,08,12,0.00
2005,12,26,08,13,0.00
2005,12,26,08,14,0.00
2005,12,26,08,15,0.00
2005,12,26,08,16,0.00
2005,12,26,08,17,0.10
2005,12,26,08,18,0.00
2005,12,26,08,19,0.00
2005,12,26,08,20,0.00
2005,12,26,08,21,0.00
2005,12,26,08,22,0.00
2005,12,26,08,23,0.00
2005,12,26,08,24,0.00
2005,12,26,08,25,0.00
2005,12,26,08,26,0.00
2005,12,26,08,27,0.20
2005,12,26,08,28,0.00
2005,12,26,08,29,0.00
2005,12,26,08,30,0.10
2005,12,26,08,31,0.10
2005,12,26,08,32,0.00
2005,12,26,08,33,0.00
2005,12,26,08,34,0.00
2005,12,26,08,35,0.40
2005,12,26,08,36,0.10
2005,12,26,08,37,0.00
2005,12,26,08,38,0.10
2005,12,26,08,39,0.00
2005,12,26,08,40,0.00
2005,12,26,08,41,0.00
2005,12,26,08,42,0.00
2005,12,26,08,43,0.00
2005,12,26,08,44,0.00
2005,12,26,08,45,0.00
2005,12,26,08,46,0.00
2005,12,26,08,47,0.00
2005,12,26,08,48,0.00
2005,12,26,08,49,0.00
2005,12,26,08,50,0.00
2005,12,26,08,51,0.00
2005,12,26,08,52,0.00
2005,12,26,08,53,0.00
2005,12,26,08,54,0.00
2005,12,26,08,55,0.00
2005,12,26,08,56,0.00
2005,12,26,08,57,0.00
2005,12,26,08,58,0.00
2005,12,26,08,59,0.00
2005,12,26,09,00,0.00
2005,12,26,09,01,0.00
2005,12,26,09,02,0.00
2005,12,26,09,03,0.20
2005,12,26,09,04,0.40
2005,12,26,09,05,0.10
2005,12,26,09,06,0.10
2005,12,26,09,07,0.50
2005,12,26,09,08,0.30
2005,12,26,09,09,0.30
2005,12,26,09,10,0.20
2005,12,26,09,11,0.00
2005,12,26,09,12,0.10
2005,12,26,09,13,1.40
2005,12,26,09,14,0.60
2005,12,26,09,15,0.20
2005,12,26,09,16,1.70
2005,12,26,09,17,0.20
2005,12,26,09,18,1.90
2005,12,26,09,19,3.00
2005,12,26,09,20,3.10
2005,12,26,09,21,5.90
2005,12,26,09,22,10.10
2005,12,26,09,23,11.90
2005,12,26,09,24,13.80
2005,12,26,09,25,13.00
2005,12,26,09,26,15.50
2005,12,26,09,27,9.70
2005,12,26,09,28,15.40
2005,12,26,09,29,8.90
2005,12,26,09,30,13.40
2005,12,26,09,31,8.50
2005,12,26,09,32,11.80
2005,12,26,09,33,10.10
2005,12,26,09,34,11.30
2005,12,26,09,35,10.10
2005,12,26,09,36,6.50
2005,12,26,09,37,14.50
2005,12,26,09,38,14.70
2005,12,26,09,39,11.30
2005,12,26,09,40,4.10
2005,12,26,09,41,5.50
2005,12,26,09,42,5.10
2005,12,26,09,43,6.10
2005,12,26,09,44,8.80
2005,12,26,09,45,6.90
2005,12,26,09,46,5.60
2005,12,26,09,47,6.80
2005,12,26,09,48,6.70
2005,12,26,09,49,8.50
2005,12,26,09,50,4.70
2005,12,26,09,51,5.50
2005,12,26,09,52,6.90
2005,12,26,09,53,4.20
2005,12,26,09,54,4.90
2005,12,26,09,55,6.70
2005,12,26,09,56,3.40
2005,12,26,09,57,7.60
2005,12,26,09,58,7.00
2005,12,26,09,59,3.70
2005,12,26,10,00,5.20
2005,12,26,10,01,8.20
2005,12,26,10,02,8.60
2005,12,26,10,03,10.10
2005,12,26,10,04,9.20
2005,12,26,10,05,7.80
2005,12,26,10,06,9.00
2005,12,26,10,07,9.60
2005,12,26,10,08,14.40
2005,12,26,10,09,17.00
2005,12,26,10,10,7.90
2005,12,26,10,11,13.40
2005,12,26,10,12,10.80
2005,12,26,10,13,12.30
2005,12,26,10,14,13.90
2005,12,26,10,15,13.00
2005,12,26,10,16,14.60
2005,12,26,10,17,13.40
2005,12,26,10,18,11.10
2005,12,26,10,19,16.20
2005,12,26,10,20,14.90
2005,12,26,10,21,19.30
2005,12,26,10,22,18.30
2005,12,26,10,23,12.80
2005,12,26,10,24,8.90
2005,12,26,10,25,10.50
2005,12,26,10,26,9.80
2005,12,26,10,27,8.40
2005,12,26,10,28,8.60
2005,12,26,10,29,9.70
2005,12,26,10,30,11.30
2005,12,26,10,31,12.00
2005,12,26,10,32,7.50
2005,12,26,10,33,5.30
2005,12,26,10,34,6.10
2005,12,26,10,35,8.50
2005,12,26,10,36,13.80
2005,12,26,10,37,7.90
2005,12,26,10,38,13.10
2005,12,26,10,39,9.30
2005,12,26,10,40,4.30
2005,12,26,10,41,4.60
2005,12,26,10,42,12.20
2005,12,26,10,43,8.60
2005,12,26,10,44,13.80
2005,12,26,10,45,6.80
2005,12,26,10,46,9.60
2005,12,26,10,47,7.10
2005,12,26,10,48,13.20
2005,12,26,10,49,8.90
2005,12,26,10,50,13.80
2005,12,26,10,51,9.20
2005,12,26,10,52,5.60
2005,12,26,10,53,7.70
2005,12,26,10,54,10.90
2005,12,26,10,55,11.30
2005,12,26,10,56,12.60
2005,12,26,10,57,12.50
2005,12,26,10,58,10.50
2005,12,26,10,59,13.30
2005,12,26,11,00,9.60
2005,12,26,11,01,9.20
2005,12,26,11,02,12.10
2005,12,26,11,03,8.70
2005,12,26,11,04,8.10
2005,12,26,11,05,7.80
2005,12,26,11,06,6.00
2005,12,26,11,07,16.10
2005,12,26,11,08,12.50
2005,12,26,11,09,8.80
2005,12,26,11,10,6.80
2005,12,26,11,11,15.80
2005,12,26,11,12,14.60
2005,12,26,11,13,11.20
2005,12,26,11,14,11.60
2005,12,26,11,15,6.50
2005,12,26,11,16,13.40
2005,12,26,11,17,13.20
2005,12,26,11,18,5.60
2005,12,26,11,19,14.60
2005,12,26,11,20,9.90
2005,12,26,11,21,8.00
2005,12,26,11,22,13.40
2005,12,26,11,23,15.80
2005,12,26,11,24,12.00
2005,12,26,11,25,13.30
2005,12,26,11,26,15.20
2005,12,26,11,27,12.20
2005,12,26,11,28,11.70
2005,12,26,11,29,11.70
2005,12,26,11,30,5.60
2005,12,26,11,31,13.80
2005,12,26,11,32,12.90
2005,12,26,11,33,13.10
2005,12,26,11,34,13.30
2005,12,26,11,35,13.30
2005,12,26,11,36,12.60
2005,12,26,11,37,14.20
2005,12,26,11,38,13.80
2005,12,26,11,39,10.50
2005,12,26,11,40,11.20
2005,12,26,11,41,12.70
2005,12,26,11,42,8.20
2005,12,26,11,43,6.60
2005,12,26,11,44,10.90
2005,12,26,11,45,19.20
2005,12,26,11,46,19.30
2005,12,26,11,47,7.50
2005,12,26,11,48,5.60
2005,12,26,11,49,8.60
2005,12,26,11,50,5.30
2005,12,26,11,51,9.10
2005,12,26,11,52,8.40
2005,12,26,11,53,9.30
2005,12,26,11,54,14.30
2005,12,26,11,55,8.00
2005,12,26,11,56,8.70
2005,12,26,11,57,7.30
2005,12,26,11,58,9.30
2005,12,26,11,59,5.40
2005,12,26,12,00,7.90
2005,12,26,12,01,7.20
2005,12,26,12,02,5.20
2005,12,26,12,03,10.20
2005,12,26,12,04,10.60
2005,12,26,12,05,11.00
2005,12,26,12,06,10.80
2005,12,26,12,07,7.90
2005,12,26,12,08,11.40
2005,12,26,12,09,13.00
2005,12,26,12,10,11.60
2005,12,26,12,11,10.90
2005,12,26,12,12,9.20
2005,12,26,12,13,16.90
2005,12,26,12,14,9.70
2005,12,26,12,15,9.60
2005,12,26,12,16,6.50
2005,12,26,12,17,3.20
2005,12,26,12,18,7.50
2005,12,26,12,19,11.40
2005,12,26,12,20,16.60
2005,12,26,12,21,10.60
2005,12,26,12,22,11.70
2005,12,26,12,23,12.50
2005,12,26,12,24,11.90
2005,12,26,12,25,10.40
2005,12,26,12,26,13.20
2005,12,26,12,27,6.10
2005,12,26,12,28,8.40
2005,12,26,12,29,15.10
2005,12,26,12,30,13.40
2005,12,26,12,31,10.40
2005,12,26,12,32,17.00
2005,12,26,12,33,11.90
2005,12,26,12,34,15.10
2005,12,26,12,35,13.60
2005,12,26,12,36,9.40
2005,12,26,12,37,9.70
2005,12,26,12,38,9.60
2005,12,26,12,39,6.60
2005,12,26,12,40,9.80
2005,12,26,12,41,13.00
2005,12,26,12,42,10.40
2005,12,26,12,43,8.10
2005,12,26,12,44,6.60
2005,12,26,12,45,7.50
2005,12,26,12,46,16.70
2005,12,26,12,47,10.40
2005,12,26,12,48,14.70
2005,12,26,12,49,12.20
2005,12,26,12,50,6.50
2005,12,26,12,51,4.70
2005,12,26,12,52,4.80
2005,12,26,12,53,4.80
2005,12,26,12,54,4.30
2005,12,26,12,55,12.60
2005,12,26,12,56,4.30
2005,12,26,12,57,6.10
2005,12,26,12,58,8.40
2005,12,26,12,59,6.40
2005,12,26,13,00,8.50
2005,12,26,13,01,13.90
2005,12,26,13,02,12.80
2005,12,26,13,03,15.90
2005,12,26,13,04,11.50
2005,12,26,13,05,6.00
2005,12,26,13,06,12.10
2005,12,26,13,07,7.90
2005,12,26,13,08,7.30
2005,12,26,13,09,8.00
2005,12,26,13,10,9.30
2005,12,26,13,11,9.20
2005,12,26,13,12,10.70
2005,12,26,13,13,7.00
2005,12,26,13,14,10.20
2005,12,26,13,15,16.10
2005,12,26,13,16,16.50
2005,12,26,13,17,10.00
2005,12,26,13,18,9.30
2005,12,26,13,19,9.60
2005,12,26,13,20,13.80
2005,12,26,13,21,10.60
2005,12,26,13,22,11.80
2005,12,26,13,23,13.60
2005,12,26,13,24,14.20
2005,12,26,13,25,15.10
2005,12,26,13,26,13.20
2005,12,26,13,27,9.10
2005,12,26,13,28,14.20
2005,12,26,13,29,17.60
2005,12,26,13,30,14.10
2005,12,26,13,31,6.50
2005,12,26,13,32,14.30
2005,12,26,13,33,13.30
2005,12,26,13,34,13.20
2005,12,26,13,35,8.50
2005,12,26,13,36,9.00
2005,12,26,13,37,9.40
2005,12,26,13,38,9.70
2005,12,26,13,39,10.50
2005,12,26,13,40,8.50
2005,12,26,13,41,9.40
2005,12,26,13,42,9.00
2005,12,26,13,43,12.00
2005,12,26,13,44,9.00
2005,12,26,13,45,13.70
2005,12,26,13,46,9.40
2005,12,26,13,47,10.50
2005,12,26,13,48,13.80
2005,12,26,13,49,5.80
2005,12,26,13,50,8.40
2005,12,26,13,51,11.50
2005,12,26,13,52,7.40
2005,12,26,13,53,9.80
2005,12,26,13,54,10.80
2005,12,26,13,55,13.60
2005,12,26,13,56,11.70
2005,12,26,13,57,7.20
2005,12,26,13,58,11.10
2005,12,26,13,59,21.50
2005,12,26,14,00,13.20
2005,12,26,14,01,14.00
2005,12,26,14,02,17.40
2005,12,26,14,03,11.50
2005,12,26,14,04,12.10
2005,12,26,14,05,14.00
2005,12,26,14,06,15.50
2005,12,26,14,07,17.10
2005,12,26,14,08,16.30
2005,12,26,14,09,9.50
2005,12,26,14,10,9.00
2005,12,26,14,11,7.20
2005,12,26,14,12,10.90
2005,12,26,14,13,9.40
2005,12,26,14,14,12.50
2005,12,26,14,15,12.00
2005,12,26,14,16,8.50
2005,12,26,14,17,7.90
2005,12,26,14,18,15.00
2005,12,26,14,19,8.40
2005,12,26,14,20,13.20
2005,12,26,14,21,6.00
2005,12,26,14,22,6.40
2005,12,26,14,23,6.40
2005,12,26,14,24,8.10
2005,12,26,14,25,11.90
2005,12,26,14,26,5.90
2005,12,26,14,27,9.10
2005,12,26,14,28,10.80
2005,12,26,14,29,14.20
2005,12,26,14,30,8.10
2005,12,26,14,31,8.90
2005,12,26,14,32,14.70
2005,12,26,14,33,14.30
2005,12,26,14,34,10.40
2005,12,26,14,35,4.80
2005,12,26,14,36,8.90
2005,12,26,14,37,15.80
2005,12,26,14,38,13.90
2005,12,26,14,39,11.40
2005,12,26,14,40,10.40
2005,12,26,14,41,6.40
2005,12,26,14,42,10.50
2005,12,26,14,43,8.90
2005,12,26,14,44,15.10
2005,12,26,14,45,15.00
2005,12,26,14,46,12.20
2005,12,26,14,47,13.10
2005,12,26,14,48,10.00
2005,12,26,14,49,10.90
2005,12,26,14,50,8.50
2005,12,26,14,51,7.60
2005,12,26,14,52,10.30
2005,12,26,14,53,9.90
2005,12,26,14,54,8.20
2005,12,26,14,55,9.70
2005,12,26,14,56,6.90
2005,12,26,14,57,13.40
2005,12,26,14,58,12.20
2005,12,26,14,59,10.20
2005,12,26,15,00,11.20
2005,12,26,15,01,5.50
2005,12,26,15,02,4.40
2005,12,26,15,03,8.30
2005,12,26,15,04,4.50
2005,12,26,15,05,6.60
2005,12,26,15,06,5.80
2005,12,26,15,07,11.50
2005,12,26,15,08,7.60
2005,12,26,15,09,10.90
2005,12,26,15,10,9.20
2005,12,26,15,11,9.70
2005,12,26,15,12,9.50
2005,12,26,15,13,7.30
2005,12,26,15,14,6.10
2005,12,26,15,15,8.10
2005,12,26,15,16,8.00
2005,12,26,15,17,9.90
2005,12,26,15,18,6.70
2005,12,26,15,19,10.50
2005,12,26,15,20,11.40
2005,12,26,15,21,9.90
2005,12,26,15,22,6.50
2005,12,26,15,23,7.70
2005,12,26,15,24,4.20
2005,12,26,15,25,4.00
2005,12,26,15,26,2.80
2005,12,26,15,27,7.20
2005,12,26,15,28,6.00
2005,12,26,15,29,6.40
2005,12,26,15,30,8.50
2005,12,26,15,31,6.50
2005,12,26,15,32,4.70
2005,12,26,15,33,3.10
2005,12,26,15,34,5.10
2005,12,26,15,35,5.90
2005,12,26,15,36,6.80
2005,12,26,15,37,7.50
2005,12,26,15,38,4.80
2005,12,26,15,39,5.50
2005,12,26,15,40,6.40
2005,12,26,15,41,6.00
2005,12,26,15,42,4.50
2005,12,26,15,43,3.80
2005,12,26,15,44,1.00
2005,12,26,15,45,3.40
2005,12,26,15,46,6.40
2005,12,26,15,47,4.20
2005,12,26,15,48,4.80
2005,12,26,15,49,4.80
2005,12,26,15,50,6.20
2005,12,26,15,51,4.50
2005,12,26,15,52,5.80
2005,12,26,15,53,3.10
2005,12,26,15,54,5.30
2005,12,26,15,55,3.60
2005,12,26,15,56,5.40
2005,12,26,15,57,2.60
2005,12,26,15,58,2.30
2005,12,26,15,59,3.50
2005,12,26,16,00,6.00
2005,12,26,16,01,2.50
2005,12,26,16,02,4.90
2005,12,26,16,03,2.20
2005,12,26,16,04,2.60
2005,12,26,16,05,8.50
2005,12,26,16,06,6.40
2005,12,26,16,07,4.20
2005,12,26,16,08,6.90
2005,12,26,16,09,4.50
2005,12,26,16,10,3.00
2005,12,26,16,11,3.70
2005,12,26,16,12,2.00
2005,12,26,16,13,4.20
2005,12,26,16,14,6.20
2005,12,26,16,15,3.90
2005,12,26,16,16,2.40
2005,12,26,16,17,7.60
2005,12,26,16,18,3.00
2005,12,26,16,19,2.10
2005,12,26,16,20,5.30
2005,12,26,16,21,4.40
2005,12,26,16,22,1.40
2005,12,26,16,23,0.10
2005,12,26,16,24,1.20
2005,12,26,16,25,2.70
2005,12,26,16,26,0.80
2005,12,26,16,27,0.00
2005,12,26,16,28,0.20
2005,12,26,16,29,2.10
2005,12,26,16,30,0.70
2005,12,26,16,31,2.90
2005,12,26,16,32,0.20
2005,12,26,16,33,1.00
2005,12,26,16,34,1.60
2005,12,26,16,35,3.00
2005,12,26,16,36,3.10
2005,12,26,16,37,2.10
2005,12,26,16,38,0.80
2005,12,26,16,39,3.60
2005,12,26,16,40,4.50
2005,12,26,16,41,2.70
2005,12,26,16,42,3.30
2005,12,26,16,43,0.60
2005,12,26,16,44,5.40
2005,12,26,16,45,3.20
2005,12,26,16,46,1.40
2005,12,26,16,47,3.10
2005,12,26,16,48,0.40
2005,12,26,16,49,4.30
2005,12,26,16,50,1.90
2005,12,26,16,51,1.10
2005,12,26,16,52,1.80
2005,12,26,16,53,0.10
2005,12,26,16,54,1.40
2005,12,26,16,55,0.30
2005,12,26,16,56,0.20
2005,12,26,16,57,1.00
2005,12,26,16,58,0.50
2005,12,26,16,59,3.10
2005,12,26,17,00,1.30
2005,12,26,17,01,2.10
2005,12,26,17,02,0.40
2005,12,26,17,03,1.30
2005,12,26,17,04,1.20
2005,12,26,17,05,1.50
2005,12,26,17,06,1.00
2005,12,26,17,07,0.40
2005,12,26,17,08,1.90
2005,12,26,17,09,1.50
2005,12,26,17,10,0.20
2005,12,26,17,11,0.00
2005,12,26,17,12,0.00
2005,12,26,17,13,0.00
2005,12,26,17,14,0.00
2005,12,26,17,15,0.20
2005,12,26,17,16,0.00
2005,12,26,17,17,0.00
2005,12,26,17,18,0.00
2005,12,26,17,19,0.00
2005,12,26,17,20,0.00
2005,12,26,17,21,0.00
2005,12,26,17,22,0.00
2005,12,26,17,23,0.10
2005,12,26,17,24,0.20
2005,12,26,17,25,0.10
2005,12,26,17,26,0.00
2005,12,26,17,27,0.00
2005,12,26,17,28,0.20
2005,12,26,17,29,0.00
2005,12,26,17,30,0.00
2005,12,26,17,31,0.80
2005,12,26,17,32,0.30
2005,12,26,17,33,0.10
2005,12,26,17,34,0.30
2005,12,26,17,35,0.70
2005,12,26,17,36,0.00
2005,12,26,17,37,0.30
2005,12,26,17,38,1.50
2005,12,26,17,39,2.20
2005,12,26,17,40,0.60
2005,12,26,17,41,0.20
2005,12,26,17,42,2.60
2005,12,26,17,43,0.70
2005,12,26,17,44,0.00
2005,12,26,17,45,0.10
2005,12,26,17,46,1.40
2005,12,26,17,47,0.70
2005,12,26,17,48,0.00
2005,12,26,17,49,0.30
2005,12,26,17,50,0.00
2005,12,26,17,51,0.00
2005,12,26,17,52,0.00
2005,12,26,17,53,0.00
2005,12,26,17,54,0.00
2005,12,26,17,55,0.00
2005,12,26,17,56,0.00